Location: Brusselsch Zeekanaal
(50.8667°N, 4.3667°E)
Time: 23:30:04
(UTC+00:00)

Cosmos 2322 Rocket - Pass Details

Date: 08 November 2025
Orbit: 830 x 851 km, 71.0° (Epoch: 04 December)

Event Time Altitude Azimuth Distance (km) Brightness Sun altitude
Exits shadow 03:59:19 43° 341° (NNW) 1,182 2.8 -26.5°
Drops below altitude 10° 04:03:45 10° 23° (NNE) 2,484 4.9 -25.8°
Sets 04:06:19 0° 29° (NNE) 3,426 5.8 -25.4°
